[Date Prev][Date Next][Thread Prev][Thread Next] - [Date Index][Thread Index][Author Index]

2 Line ISS Keps 5-20



ISS
1 25544U 98067A   03140.15769574  .00006512  00000-0  87238-4 0   292
2 25544  51.6298 161.0901 0006054 132.8896 271.9920 15.59360683256631


----
Via the sarex mailing list at AMSAT.ORG courtesy of AMSAT-NA.
To unsubscribe, send "unsubscribe sarex" to Majordomo@amsat.org



AMSAT Top AMSAT Home